Location: Camp Creek
(33.9000°N, 111.8167°W)
Time: 00:09:45
(UTC-07:00)

Cosmos 1656 - Visible Passes

Search period start: 30 April 2016 00:00
Search period end: 10 May 2016 00:00
Orbit: 798 x 850 km, 71.1° (Epoch: 29 April)

Date Brightness Start Highest point End Pass type
(mag) Time Alt. Az. Time Alt. Az. Time Alt. Az.
30 Apr 3.5 20:30:27 10° S 20:35:52 71° ESE 20:41:23 10° NNE visible
30 Apr 6.5 22:17:16 10° W 22:20:04 14° NW 22:22:53 10° NNW visible
01 May 3.6 20:10:08 10° S 20:15:29 59° ESE 20:20:56 10° NNE visible
01 May 6.4 21:56:07 10° W 21:59:31 16° WNW 22:02:58 10° NNW visible
02 May 6.9 05:07:47 10° NNE 05:10:50 14° NE 05:13:52 10° E visible
02 May 3.8 19:49:52 10° S 19:55:06 49° ESE 20:00:26 10° NNE visible
02 May 6.2 21:35:08 10° WSW 21:39:00 19° WNW 21:42:56 10° NNW visible
03 May 7.1 04:48:03 10° NNE 04:50:17 12° NE 04:52:31 10° ENE visible
03 May 4.0 19:29:39 10° S 19:34:44 41° ESE 19:39:54 10° NE visible
03 May 6.1 21:14:14 10° WSW 21:18:30 23° WNW 21:22:49 10° N visible
04 May 7.4 04:29:01 10° NE 04:29:44 10° NE 04:30:27 10° ENE visible
04 May 5.9 20:53:27 10° WSW 20:58:00 26° WNW 21:02:39 10° N visible
05 May 5.6 20:32:41 10° SW 20:37:31 31° WNW 20:42:26 10° N visible
06 May 5.4 20:12:01 10° SW 20:17:03 36° WNW 20:22:11 10° N visible
07 May 5.1 19:51:24 10° SW 19:56:35 43° WNW 20:01:53 10° N visible
08 May 5.3 04:47:07 10° N 04:52:30 41° ENE 04:57:51 10° SE visible
09 May 5.5 04:26:50 10° N 04:32:03 35° ENE 04:37:13 10° SE visible
